Date String (YYYY-MM-DD hh:mm:ss) UTC,Instrument flags,Ambient pressure (hPa),Sample flow (lpm),Bypass flow (lpm),Sample temperature (°C),Ambient temperature (°C),ASC tube jacket temperature (°C),LED temperature (°C),Box temperature (°C),Sample RH (%),Span deviation,Mass concentration (μg/m³),Mass concentration (μg/m³),Mass concentration (μg/m³)
DateTimeUTC,F1_M11,P_M11,Q1_M11,Q2_M11,T1_M11,T2_M11,T3_M11,T4_M11,T5_M11,U1_M11,ZSPAN_M11,X0_M11,X2_M11,X1_M11
2021-12-10 22:00:00,,0816.9,4.99,0.00,22.6,21.8,00.0,31.6,24.1,06.6,0000.0,0002.84,0001.75,0001.27
2021-12-10 22:01:00,,0816.9,5.00,0.00,22.6,21.7,00.0,31.6,24.1,06.5,0000.0,0002.84,0001.76,0001.28
2021-12-10 22:02:00,,0816.9,5.00,0.00,22.5,21.6,00.0,31.6,24.0,06.6,0000.0,0002.97,0001.75,0001.28
2021-12-10 22:03:00,,0817.0,4.99,0.00,22.5,21.6,00.0,31.6,24.0,06.5,0000.0,0003.21,0001.73,0001.28
2021-12-10 22:04:00,,0817.0,5.00,0.00,22.5,21.5,00.0,31.6,24.0,06.6,0000.0,0003.17,0001.72,0001.27
2021-12-10 22:05:00,,0817.0,5.00,0.00,22.4,21.5,00.0,31.6,24.0,06.6,0000.0,0003.08,0001.69,0001.26
2021-12-10 22:06:00,,0817.0,5.00,0.00,22.4,21.4,00.0,31.6,23.8,06.7,0000.0,0003.09,0001.67,0001.25
2021-12-10 22:07:00,,0817.1,5.00,0.00,22.4,21.2,00.0,31.5,23.8,06.7,0000.0,0003.26,0001.72,0001.25
2021-12-10 22:08:00,,0817.1,5.01,0.00,22.3,21.1,00.0,31.5,23.8,06.8,0000.0,0003.25,0001.72,0001.24
2021-12-10 22:09:00,,0817.3,5.00,0.00,22.3,21.0,00.0,31.5,23.8,06.9,0000.0,0003.06,0001.64,0001.23
2021-12-10 22:10:00,,0817.3,4.99,0.00,22.3,21.0,00.0,31.5,23.8,07.0,0000.0,0002.96,0001.59,0001.21
2021-12-10 22:11:00,,0817.4,5.01,0.00,22.3,20.9,00.0,31.5,23.7,07.0,0000.0,0002.90,0001.57,0001.20
2021-12-10 22:12:00,,0817.3,5.00,0.00,22.2,20.9,00.0,31.5,23.6,07.0,0000.0,0003.00,0001.62,0001.19
2021-12-10 22:13:00,,0817.4,5.00,0.00,22.2,20.9,00.0,31.4,23.5,07.1,0000.0,0003.15,0001.64,0001.20
2021-12-10 22:14:00,,0817.5,5.00,0.00,22.2,20.9,00.0,31.4,23.6,07.1,0000.0,0003.71,0001.65,0001.21
2021-12-10 22:15:00,,0817.5,4.99,0.00,22.2,21.6,00.0,31.5,23.9,07.1,0000.0,0003.82,0001.65,0001.21
2021-12-10 22:16:00,,0817.5,5.01,0.00,22.4,22.4,00.0,31.5,24.3,07.1,0000.0,0003.90,0001.68,0001.22
2021-12-10 22:17:00,,0817.5,5.00,0.00,22.5,23.1,00.0,31.5,24.6,07.0,0000.0,0003.93,0001.70,0001.23
2021-12-10 22:18:00,,0817.6,4.99,0.00,22.6,23.0,00.0,31.6,24.6,06.9,0000.0,0003.83,0001.68,0001.24
2021-12-10 22:19:00,,0817.6,5.00,0.00,22.6,22.8,00.0,31.6,24.5,07.0,0000.0,0003.84,0001.69,0001.25
2021-12-10 22:20:00,,0817.6,5.00,0.00,22.6,22.5,00.0,31.6,24.4,07.1,0000.0,0003.95,0001.73,0001.26
2021-12-10 22:21:00,,0817.6,5.01,0.00,22.6,22.3,00.0,31.6,24.3,07.0,0000.0,0004.21,0001.78,0001.28
2021-12-10 22:22:00,,0817.6,5.00,0.00,22.6,22.1,00.0,31.6,24.3,06.9,0000.0,0004.22,0001.79,0001.28
2021-12-10 22:23:00,,0817.6,5.00,0.00,22.6,21.9,00.0,31.6,24.2,07.0,0000.0,0004.22,0001.78,0001.29
2021-12-10 22:24:00,,0817.6,5.00,0.00,22.6,21.7,00.0,31.6,24.1,06.9,0000.0,0004.23,0001.81,0001.30
2021-12-10 22:25:00,,0817.6,5.01,0.00,22.5,21.5,00.0,31.6,24.1,06.9,0000.0,0003.43,0001.86,0001.31
2021-12-10 22:26:00,,0817.7,4.99,0.00,22.5,21.4,00.0,31.6,24.0,07.0,0000.0,0003.43,0001.89,0001.32
2021-12-10 22:27:00,,0817.7,5.02,0.00,22.4,21.3,00.0,31.5,24.0,07.0,0000.0,0003.47,0001.92,0001.32
2021-12-10 22:28:00,,0817.7,5.00,0.00,22.4,21.3,00.0,31.5,23.9,07.0,0000.0,0003.46,0001.93,0001.33
2021-12-10 22:29:00,,0817.8,4.99,0.00,22.4,21.2,00.0,31.5,23.8,07.1,0000.0,0003.81,0001.90,0001.33
2021-12-10 22:30:00,,0817.8,4.99,0.00,22.3,21.1,00.0,31.5,23.8,07.2,0000.0,0004.33,0001.85,0001.32
2021-12-10 22:31:00,,0817.8,5.01,0.00,22.3,21.1,00.0,31.5,23.8,07.2,0000.0,0004.22,0001.82,0001.32
2021-12-10 22:32:00,,0817.8,5.00,0.00,22.3,21.0,00.0,31.5,23.7,07.2,0000.0,0004.14,0001.84,0001.32
2021-12-10 22:33:00,,0817.8,4.99,0.00,22.2,21.0,00.0,31.4,23.7,07.2,0000.0,0004.24,0001.88,0001.32
2021-12-10 22:34:00,,0817.7,5.00,0.00,22.2,20.9,00.0,31.4,23.7,07.3,0000.0,0004.23,0001.88,0001.32
2021-12-10 22:35:00,,0817.7,5.00,0.00,22.2,20.9,00.0,31.4,23.6,07.3,0000.0,0004.48,0001.84,0001.31
2021-12-10 22:36:00,,0817.7,5.00,0.00,22.2,20.9,00.0,31.4,23.7,07.4,0000.0,0004.76,0001.78,0001.30
2021-12-10 22:37:00,,0817.8,5.00,0.00,22.2,21.3,00.0,31.4,23.8,07.4,0000.0,0004.99,0001.79,0001.30
2021-12-10 22:38:00,,0817.8,5.00,0.00,22.3,22.1,00.0,31.5,24.2,07.4,0000.0,0005.04,0001.81,0001.29
2021-12-10 22:39:00,,0817.8,5.01,0.00,22.5,22.9,00.0,31.5,24.5,07.4,0000.0,0005.26,0001.85,0001.28
2021-12-10 22:40:00,,0817.8,5.00,0.00,22.6,23.2,00.0,31.5,24.6,07.3,0000.0,0005.11,0001.85,0001.26
2021-12-10 22:41:00,,0817.8,5.00,0.00,22.6,22.9,00.0,31.5,24.5,07.3,0000.0,0004.31,0001.85,0001.27
2021-12-10 22:42:00,,0817.9,5.00,0.00,22.6,22.6,00.0,31.5,24.4,07.3,0000.0,0004.30,0001.85,0001.27
2021-12-10 22:43:00,,0818.0,4.99,0.00,22.5,22.3,00.0,31.5,24.2,07.4,0000.0,0004.26,0001.84,0001.26
2021-12-10 22:44:00,,0818.0,5.00,0.00,22.5,22.0,00.0,31.5,24.1,07.4,0000.0,0004.24,0001.84,0001.26
2021-12-10 22:45:00,,0818.0,5.01,0.00,22.4,21.8,00.0,31.5,24.0,07.3,0000.0,0004.15,0001.81,0001.25
2021-12-10 22:46:00,,0818.0,4.99,0.00,22.4,21.7,00.0,31.5,23.9,07.4,0000.0,0003.96,0001.82,0001.25
2021-12-10 22:47:00,,0818.0,5.00,0.00,22.3,21.5,00.0,31.5,23.8,07.4,0000.0,0004.09,0001.82,0001.25
2021-12-10 22:48:00,,0818.2,5.00,0.00,22.3,21.4,00.0,31.5,23.8,07.4,0000.0,0004.44,0001.82,0001.25
2021-12-10 22:49:00,,0818.2,5.01,0.00,22.2,21.2,00.0,31.4,23.7,07.4,0000.0,0004.43,0001.82,0001.25
2021-12-10 22:50:00,,0818.3,5.00,0.00,22.2,21.2,00.0,31.4,23.6,07.4,0000.0,0004.39,0001.82,0001.25
2021-12-10 22:51:00,,0818.3,5.01,0.00,22.1,21.1,00.0,31.4,23.5,07.4,0000.0,0004.24,0001.83,0001.28
2021-12-10 22:52:00,,0818.4,4.99,0.00,22.1,21.0,00.0,31.3,23.4,07.5,0000.0,0004.31,0001.87,0001.28
2021-12-10 22:53:00,,0818.4,5.01,0.00,22.0,20.9,00.0,31.3,23.3,07.4,0000.0,0004.33,0001.87,0001.28
2021-12-10 22:54:00,,0818.4,5.00,0.00,22.0,21.3,00.0,31.3,23.6,07.5,0000.0,0004.28,0001.84,0001.29
2021-12-10 22:55:00,,0818.4,4.99,0.00,22.2,22.1,00.0,31.4,24.0,07.3,0000.0,0004.26,0001.83,0001.30
2021-12-10 22:56:00,,0818.5,5.00,0.00,22.3,22.9,00.0,31.4,24.3,07.3,0000.0,0005.53,0001.88,0001.31
2021-12-10 22:57:00,,0818.4,5.00,0.00,22.5,23.1,00.0,31.4,24.5,07.2,0000.0,0005.64,0001.90,0001.33
2021-12-10 22:58:00,,0818.6,5.00,0.00,22.5,22.8,00.0,31.4,24.3,06.6,0000.0,0005.30,0001.95,0001.33
2021-12-10 22:59:00,,0818.7,5.00,0.00,22.4,22.4,00.0,31.4,24.2,06.5,0000.0,0005.11,0001.96,0001.34
